FLOCK 4BE 4

导读

FLOCK 4BE 4是美国Planet公司(原行星实验室)研制的3U立方体遥感卫星,属于FLOCK(鸽群)商业遥感星座的组成部分,于2024年8月16日发射升空。该卫星运行于近地太阳同步轨道,单星重约5千克,配备多光谱成像设备,可提供高分辨率对地观测数据,服务农业、林业、测绘等多领域应用,是Planet公司维持在轨卫星星座服务能力、补充遥感数据源的最新发射任务之一。

Basic Information
目录编号:
60482
目录名称:
FLOCK 4BE 4
国际标识:
2024-149Q
轨道中心:
EARTH
卫星名称:
FLOCK 4BE 4
卫星全名:
FLOCK 4BE 4
卫星状态:
已陨落 最后检测时间 2025-11-18
发射日期:
2024-08-16 UTC
国别 :
美国 (US)
星等 :
--
Orbit Information
数据来源 国际轨道数据
星历时间: 2025-11-18T17:02:31+0800
轨道信息已过期251天
半长轴: 6573.418km
偏心率: 0.0010961
轨道倾角: 97.372°
近地点辐角 281.979°
升交点赤经 53.715°
平近点角 78.028°
近地点: 188.077km
远地点: 202.489km
周期: 88.399分钟
每日圈数: 16.289808
Detailed Information
使用方式:
暂无